Regional Weather Roundup
Issued by NWS Northern Indiana

Home | Current Version | Previous Version | Text Only | Print | Product List | Glossary Off
Versions: 1 2 3 4 5 6 7 8 9 10 11 12 13 14 15 16 17 18 19 20 21 22 23 24 25 26 27 28 29 30 31 32 33 34 35 36 37 38 39 40 41 42 43 44 45 46 47 48 49 50

000
ASUS43 KIWX 291810
RWRIWX

KIWX WEATHER ROUNDUP
NATIONAL WEATHER SERVICE NORTHERN INDIANA
200 PM EDT FRI AUG 29 2014

NOTE: "FAIR" INDICATES FEW OR NO CLOUDS BELOW 12,000 FEET WITH NO
SIGNIFICANT WEATHER AND/OR OBSTRUCTIONS TO VISIBILITY.

* THESE STATIONS ARE NOT UNDER NWS QUALITY CONTROL. THEY ALSO MAY NOT
  REPORT WEATHER SUCH AS PRECIPITATION OR FOG.

INZ001>027-291900-
NORTHERN INDIANA

CITY           SKY/WX    TMP DP  RH WIND       PRES   REMARKS
GARY*          PTSUNNY   82  70  65 S7        29.98
VALPARAISO     CLOUDY    76  70  82 S7        30.01F
6HR MIN TEMP:  67; 6HR MAX TEMP:  80; 6HR PCP:  0.01;

MICHIGAN CITY* PTSUNNY   77  66  69 S10       29.99F
LAPORTE*       PTSUNNY   74  69  82 S3        30.02F
6HR MIN TEMP:  66; 6HR MAX TEMP:  75;

KNOX*          MOSUNNY   78  68  70 S7        30.00F
6HR MIN TEMP:  41; 6HR MAX TEMP:  88;

SOUTH BEND     CLOUDY    78  67  68 SE6       30.03F THUNDER
6HR MIN TEMP:  68; 6HR MAX TEMP:  81; 6HR PCP:  0.04;

ELKHART*       PTSUNNY   75  68  78 SE8       30.04F
GOSHEN         MOSUNNY   81  67  62 SE10      30.03F
6HR MIN TEMP:  65; 6HR MAX TEMP:  82; 6HR PCP:  0.07;

MONTICELLO*    CLOUDY    75  71  87 CALM      30.00F
6HR MIN TEMP:  67; 6HR MAX TEMP:  79; 6HR PCP:  0.05;

LOGANSPORT*    PTSUNNY   81  66  61 S8        30.03F
ROCHESTER*     MOSUNNY   82  70  65 S10       30.03F
WARSAW*        MOSUNNY   81  68  65 SE7       30.04F
ANGOLA*        MOSUNNY   81  64  57 S10       30.06F
FORT WAYNE     PTSUNNY   78  67  68 SE7       30.07F
6HR MIN TEMP:  63; 6HR MAX TEMP:  78;

HUNTINGTON*    PTSUNNY   79  68  68 S6        30.05F
6HR MIN TEMP:  62; 6HR MAX TEMP:  79;

PERU/GRISSOM   MOSUNNY   80  73  77 S9        30.03F
6HR MIN TEMP:  65; 6HR MAX TEMP:  80;

MARION*        PTSUNNY   78  65  64 S8        30.05F
6HR MIN TEMP:  40; 6HR MAX TEMP:  88;


$$
INZ028>050-291900-
CENTRAL INDIANA

CITY           SKY/WX    TMP DP  RH WIND       PRES   REMARKS
LAFAYETTE      PTSUNNY   80  70  71 SE8       30.00F
6HR MIN TEMP:  70; 6HR MAX TEMP:  80;

KOKOMO*        PTSUNNY   81  70  69 SE13      30.03F
6HR MIN TEMP:  64; 6HR MAX TEMP:  81;

MUNCIE*        PTSUNNY   80  66  62 SE6       30.06F
6HR MIN TEMP:  68; 6HR MAX TEMP:  80;

INDIANAPOLIS   PTSUNNY   78  68  71 E6        30.02F
6HR MIN TEMP:  69; 6HR MAX TEMP:  79; 6HR PCP: TRACE;


$$
MIZ043>046-050>051-056>058-064>065-071>073-077>080-291900-
SOUTHWEST LOWER MICHIGAN

CITY           SKY/WX    TMP DP  RH WIND       PRES   REMARKS
BATTLE CREEK   PTSUNNY   74  61  63 SE10      30.06F
6HR MIN TEMP:  63; 6HR MAX TEMP:  75; 6HR PCP: TRACE;

BENTON HARBOR  MOSUNNY   80  67  64 SE15      29.99F
6HR MIN TEMP:  65; 6HR MAX TEMP:  81; 6HR PCP: TRACE;

COLDWATER*     PTSUNNY   80  63  55 S6        30.07F
6HR MIN TEMP:  63; 6HR MAX TEMP:  80;

HILLSDALE*     PTSUNNY   77  60  56 SE6       30.09F
6HR MIN TEMP:  61; 6HR MAX TEMP:  77;

HOLLAND        PTSUNNY   76  67  73 SE8       30.02F
6HR MIN TEMP:  65; 6HR MAX TEMP:  76; 6HR PCP:  0.04;

GRAND RAPIDS   CLOUDY    73  65  75 SE13      30.04F
6HR MIN TEMP:  63; 6HR MAX TEMP:  74; 6HR PCP: TRACE;

KALAMAZOO      PTSUNNY   78  63  59 S9        30.05F
6HR MIN TEMP:  63; 6HR MAX TEMP:  78; 6HR PCP: TRACE;

STURGIS*         N/A     75  66  73 S7        30.05F
THREE RIVERS*  CLOUDY    77  65  68 S8        30.05S

$$
OHZ001>008-015>018-024>025-291900-
NORTHWEST OHIO

CITY           SKY/WX    TMP DP  RH WIND       PRES   REMARKS
WAUSEON*       FAIR      81  61  50 S9        30.09F
DEFIANCE       MOSUNNY   81  62  52 SE8       30.07F
6HR MIN TEMP:  62; 6HR MAX TEMP:  81;

FINDLAY        MOSUNNY   79  61  53 S12       30.09F
6HR MIN TEMP:  60; 6HR MAX TEMP:  80;

TOLEDO EXPRESS MOSUNNY   79  59  50 VRB6      30.09F
6HR MIN TEMP:  57; 6HR MAX TEMP:  79;

TOLEDO METCALF PTSUNNY   80  58  46 SE9       30.10F
6HR MIN TEMP:  58; 6HR MAX TEMP:  80;

LIMA           SUNNY     80  63  55 SE10      30.09F
6HR MIN TEMP:  63; 6HR MAX TEMP:  80;


$$
&&


USA.gov is the U.S. government's official web portal to all federal, state and local government web resources and services.